This demonstration page uses our WeatherBlox Daily Observations layout. Learn more.

Left ArrowRight Arrow

38.20091, -84.87328

Hourly Observations for September 22, 2021

Temp ( °F °C ) Dew Point ( °F °C ) Humidity (%) Winds ( mph kmh ) Pressure ( in mb ) Visibility ( mi km ) Precip ( " mm )
12:51 am 00:51 Mostly Cloudy with Nearby Thunderstorms 72 22 72 22 100 100 Calm 29.94 1014 5 8 0.08 2.03
12:53 am 00:53 Mostly Cloudy with Nearby Thunderstorms 72 22.2 71 21.7 97 97 S 3 6 29.94 1014 6 10 0.08 2.03
1:17 am 01:17 Mostly Cloudy with Heavy Rain 72 22.2 71 21.7 97 97 SSW 7 11 29.92 1013 3 4 0.08 2.03
1:42 am 01:42 Cloudy with Rain 71 21.7 70 21.1 96 96 S 3 6 29.90 1012 5 8 0.22 5.59
1:53 am 01:53 Mostly Cloudy with Light Rain 72 22.2 70 21.1 94 94 SE 3 6 29.88 1012 9 14 0.23 5.84
2:44 am 02:44 Cloudy 72 22.2 70 21.1 94 94 S 6 9 29.87 1012 10 16 0.00 0.00
2:47 am 02:47 Cloudy 72 22 70 21 94 94 S 6 9 29.88 1012 10 16 0.00 0.00
2:53 am 02:53 Cloudy 72 22.2 70 21.1 94 94 S 7 11 29.87 1012 10 16 0.00 0.00
3:03 am 03:03 Mostly Cloudy 72 22.2 70 21.1 94 94 S 6 9 29.86 1011 10 16 0.00 0.00
3:07 am 03:07 Cloudy 72 22.2 70 21.1 94 94 S 6 9 29.86 1011 10 16 0.00 0.00
3:20 am 03:20 Cloudy 72 22.2 70 21.1 94 94 S 5 7 29.85 1011 10 16 0.00 0.00
3:53 am 03:53 Cloudy 72 22.2 70 21.1 94 94 SW 3 6 29.84 1011 10 16 0.00 0.00
4:53 am 04:53 Cloudy with Light Rain 67 19.4 66 18.9 97 97 NW 10 17 29.84 1010 9 14 0.02 0.51
5:36 am 05:36 Cloudy with Light Rain 62 16.7 60 15.6 93 93 NW 17 28 29.88 1012 3 5 0.02 0.51
5:53 am 05:53 Cloudy 61 16.1 59 15 93 93 NW 16 26 29.88 1012 9 14 0.02 0.51
6:07 am 06:07 Cloudy 61 16.1 58 14.4 90 90 NW 17 28 29.89 1012 10 16 0.00 0.00
6:53 am 06:53 Cloudy with Light Rain 60 15.6 58 14.4 93 93 NNW 14 22 29.89 1012 8 13 0.00 0.00
7:00 am 07:00 Cloudy with Light Rain 60 15.6 58 14.4 93 93 NNW 9 15 29.90 1013 10 16 0.00 0.00
7:53 am 07:53 Cloudy with Light Rain 60 15.6 57 13.9 90 90 NNW 7 11 29.91 1013 10 16 0.01 0.25
8:53 am 08:53 Cloudy with Light Rain 59 15 58 14.4 96 96 W 7 11 29.94 1014 6 10 0.03 0.76
9:28 am 09:28 Cloudy with Rain 59 15 58 14.4 96 96 N 5 7 29.93 1013 3 4 0.07 1.78
9:35 am 09:35 Cloudy with Light Rain 60 15.6 58 14.4 93 93 N 6 9 29.90 1013 6 10 0.07 1.78
9:53 am 09:53 Cloudy with Light Rain 60 15.6 58 14.4 93 93 NW 5 7 29.92 1013 10 16 0.08 2.03
10:15 am 10:15 Cloudy with Light Rain 60 15.6 58 14.4 93 93 N 5 7 29.92 1013 6 10 0.03 0.76
10:53 am 10:53 Cloudy 60 15.6 58 14.4 93 93 NE 6 9 29.90 1012 10 16 0.05 1.27
11:31 am 11:31 Cloudy with Light Rain 60 15.6 58 14.4 93 93 Calm 29.89 1012 10 16 0.01 0.25
11:41 am 11:41 Cloudy with Light Rain 60 15.6 59 15 96 96 VRB 3 6 29.90 1013 10 16 0.01 0.25
11:53 am 11:53 Cloudy 61 16.1 58 14.4 90 90 E 5 7 29.89 1012 10 16 0.01 0.25
12:23 pm 12:23 Cloudy 61 16.1 58 14.4 90 90 SW 7 11 29.90 1013 10 16 0.00 0.00
12:45 pm 12:45 Cloudy 61 16.1 58 14.4 90 90 WNW 6 9 29.87 1012 10 16 0.00 0.00
12:53 pm 12:53 Cloudy 62 16.7 59 15 90 90 WSW 8 13 29.88 1012 10 16 0.00 0.00
1:42 pm 13:42 Cloudy with Light Rain 61 16.1 59 15 93 93 W 3 6 29.90 1013 2 3 0.01 0.25
1:44 pm 13:44 Cloudy with Light Rain 61 16.1 59 15 93 93 W 3 6 29.90 1013 2 3 0.02 0.51
1:47 pm 13:47 Cloudy with Heavy Rain 61 16 59 15 94 94 WSW 6 9 29.90 1013 1 1 0.09 2.29
1:53 pm 13:53 Cloudy with Heavy Rain 60 15.6 59 15 96 96 SSW 6 9 29.89 1012 1 1 0.17 4.32
2:00 pm 14:00 Cloudy with Rain 61 16.1 59 15 93 93 SSW 9 15 29.90 1013 2 2 0.02 0.51
2:02 pm 14:02 Cloudy with Rain 61 16.1 59 15 93 93 SW 8 13 29.90 1013 2 3 0.03 0.76
2:17 pm 14:17 Cloudy with Light Rain 62 16.7 60 15.6 93 93 SW 7 11 29.90 1013 4 6 0.04 1.02
2:29 pm 14:29 Cloudy with Light Rain 61 16.1 60 15.6 97 97 WSW 9 15 29.89 1012 6 10 0.05 1.27
2:38 pm 14:38 Cloudy with Heavy Rain 61 16.1 59 15 93 93 W 10 17 29.89 1012 2 2 0.10 2.54
2:43 pm 14:43 Cloudy with Heavy Rain 60 15.6 59 15 96 96 WSW 8 13 29.89 1012 1 1 0.14 3.56
2:50 pm 14:50 Cloudy with Rain 61 16 59 15 94 94 W 7 11 29.88 1012 1 2 0.16 4.06
2:53 pm 14:53 Cloudy with Rain 61 16.1 59 15 93 93 W 7 11 29.88 1012 2 3 0.16 4.06
3:01 pm 15:01 Cloudy with Light Rain 61 16.1 59 15 93 93 W 8 13 29.88 1012 9 14 0.00 0.00
3:25 pm 15:25 Cloudy with Light Rain 61 16.1 60 15.6 97 97 W 6 9 29.88 1012 10 16 0.01 0.25
3:34 pm 15:34 Cloudy with Light Rain 61 16.1 59 15 93 93 WNW 9 15 29.88 1012 8 13 0.01 0.25
3:50 pm 15:50 Cloudy with Light Rain 61 16 57 14 88 88 NW 12 19 29.88 1012 8 13 0.02 0.51
3:53 pm 15:53 Cloudy with Light Rain 60 15.6 58 14.4 93 93 NW 13 20 29.87 1012 9 14 0.02 0.51
4:19 pm 16:19 Cloudy with Light Rain 59 15 57 13.9 93 93 NW 14 22 29.89 1012 6 10 0.03 0.76
4:53 pm 16:53 Cloudy with Light Rain 58 14.4 56 13.3 93 93 WNW 12 19 29.90 1012 7 11 0.06 1.52
5:09 pm 17:09 Cloudy with Rain 57 13.9 55 12.8 93 93 NW 10 17 29.91 1013 3 5 0.02 0.51
5:20 pm 17:20 Cloudy with Light Rain 57 13.9 55 12.8 93 93 NW 12 19 29.91 1013 4 6 0.03 0.76
5:53 pm 17:53 Cloudy 57 13.9 55 12.8 93 93 NW 10 17 29.90 1013 10 16 0.03 0.76
6:53 pm 18:53 Cloudy with Light Rain 56 13.3 54 12.2 93 93 NW 10 17 29.93 1013 5 8 0.02 0.51
7:11 pm 19:11 Cloudy 56 13.3 53 11.7 90 90 WNW 12 19 29.94 1014 10 16 0.00 0.00
7:39 pm 19:39 Cloudy with Light Rain 55 12.8 53 11.7 93 93 WNW 7 11 29.94 1014 10 16 0.00 0.00
7:53 pm 19:53 Cloudy with Light Rain 55 12.8 53 11.7 93 93 WNW 8 13 29.94 1014 4 6 0.01 0.25
8:14 pm 20:14 Cloudy with Light Rain 54 12.2 53 11.7 97 97 WNW 7 11 29.95 1014 4 6 0.01 0.25
8:18 pm 20:18 Cloudy with Light Rain 54 12.2 53 11.7 97 97 WNW 7 11 29.95 1014 4 6 0.01 0.25
8:53 pm 20:53 Cloudy with Light Rain 54 12.2 53 11.7 97 97 WNW 8 13 29.96 1015 4 6 0.03 0.76
9:04 pm 21:04 Cloudy with Light Rain 54 12.2 53 11.7 97 97 WNW 7 11 29.97 1015 4 6 0.01 0.25
9:17 pm 21:17 Cloudy with Light Rain 54 12.2 53 11.7 97 97 W 7 11 29.97 1015 4 6 0.02 0.51
9:19 pm 21:19 Cloudy with Light Rain 54 12.2 53 11.7 97 97 WNW 8 13 29.97 1015 4 6 0.02 0.51
9:22 pm 21:22 Cloudy with Light Rain 54 12.2 53 11.7 97 97 WNW 8 13 29.97 1015 4 6 0.02 0.51
9:53 pm 21:53 Cloudy with Light Rain 54 12.2 53 11.7 97 97 WNW 8 13 29.97 1015 7 11 0.04 1.02
10:06 pm 22:06 Cloudy with Light Rain 55 12.8 53 11.7 93 93 WNW 6 9 29.98 1015 9 14 0.00 0.00
10:25 pm 22:25 Cloudy with Light Rain 55 12.8 53 11.7 93 93 WNW 9 15 29.98 1015 5 8 0.02 0.51
10:32 pm 22:32 Cloudy with Light Rain 55 12.8 53 11.7 93 93 WNW 8 13 29.98 1015 6 10 0.02 0.51
10:51 pm 22:51 Cloudy 55 13 54 12 94 94 WNW 6 9 29.98 1015 10 16 0.02 0.51
10:53 pm 22:53 Cloudy 55 12.8 53 11.7 93 93 VRB 7 11 29.98 1015 10 16 0.02 0.51
11:23 pm 23:23 Cloudy 55 12.8 53 11.7 93 93 W 7 11 29.99 1016 10 16 0.00 0.00
11:50 pm 23:50 Cloudy 55 13 54 12 94 94 W 6 9 29.99 1016 10 16 0.00 0.00
11:53 pm 23:53 Cloudy 55 12.8 53 11.7 93 93 W 6 9 29.98 1015 10 16 0.00 0.00

Powered by AerisWeather